Retour au catalogue

SL-3 DEB

ActifSSO
NORAD 25655·DEBRIS·🇷🇺 Russia

Lancé Apr 20, 1988 depuis Baikonur Cosmodrome

Loading…

Prochains Passages (prochaines 24 heures)

TLE

FraisSource: Space-Track

Époque: Sep 14, 2026, 16:39 UTC

1 25655U 88032D   26257.69402630  .00004066  00000-0  17421-3 0  9990
2 25655  97.5260 241.0858 0028646 284.3784  75.4273 15.22988445 79961

Suivez SL-3 DEB en temps réel avec AllMySat

Download on the App Store